Tracking 30922 objects as of 2-Jul-2025
HD Live streaming from Space Station
objects crossing your sky now

COSMOS 2572

Track COSMOS 2572 now!
10-day predictions


NORAD ID: 58435
Int'l Code: 2023-182A
Perigee: 312.2 km
Apogee: 334.1 km
Inclination: 96.7 °
Period: 90.8 minutes
Semi major axis: 6694 km
RCS: Unknown
Launch date: November 25, 2023
Source: Commonwealth of Independent States (former USSR) (CIS)
Launch site: PLESETSK MISSILE AND SPACE COMPLEX (PKMTR)
Your satellite tracking list
Your tracking list is empty




NASA's NSSDC Master Catalog

Two Line Element Set (TLE):
1 58435U 23182A   25182.88365364  .00044601  00000-0  18818-3 0  9996
2 58435  96.6980 287.4912 0016352 182.2291 177.8911 15.85119575 92811
Source of the keplerian elements: AFSPC